Location: Ku?niki
(51.4449°N, 17.8974°E)
Time: 10:59:44
(UTC+00:00)

Cosmos 2034 Rocket - Pass Details

Date: 18 September 2020
Orbit: 957 x 1002 km, 82.9° (Epoch: 25 October)

Event Time Altitude Azimuth Distance (km) Brightness Sun altitude
Rises 18:54:58 0° 190° (S) 3,714 6.9 -18.7°
Reaches altitude 10° 18:57:29 10° 191° (S) 2,767 6.2 -19.1°
Maximum altitude 19:03:52 83° 279° (W) 1,013 4.1 -19.9°
Drops below altitude 10° 19:10:16 10° 9° (N) 2,769 6.6 -20.8°
Sets 19:12:48 0° 10° (N) 3,717 7.3 -21.1°
